When you browse on this site, cookies collect data to enhance your experience and personalize the content and advertising you see.
Visit our Privacy Policy to learn more. By continuing to use the site, you agree to this use of cookies and data.
  • In Austria
  • List of Countries
  • For 7 days
  • Water Temperature
  • Weather Map
  • News
  • Weather Widgets
  • user-avatar
    Login

    Hourly Weather Newcastle

    Today, 10 April, Friday

    Time Temperature Precipitation Wind Pressure Humidity
    00:00 +18°C° 0 mm 4 mps 766 mmHg 90%
    01:00 +18°C° 0 mm 4 mps 766 mmHg 89%
    02:00 +18°C° 0 mm 4 mps 766 mmHg 88%
    03:00 +18°C° 0 mm 4 mps 765 mmHg 88%
    04:00 +18°C° 0 mm 3 mps 765 mmHg 86%
    05:00 +18°C° 0 mm 4 mps 765 mmHg 87%
    06:00 +18°C° 0 mm 4 mps 765 mmHg 88%
    07:00 +17°C° 0 mm 4 mps 765 mmHg 89%
    08:00 +17°C° 0.6 mm 4 mps 764 mmHg 91%
    09:00 +17°C° 0.6 mm 4 mps 764 mmHg 93%
    10:00 +17°C° 0.6 mm 3 mps 764 mmHg 95%
    11:00 +17°C° 1.4 mm 3 mps 763 mmHg 95%
    12:00 +17°C° 1.4 mm 3 mps 762 mmHg 96%
    13:00 +17°C° 1.4 mm 4 mps 762 mmHg 96%
    14:00 +17°C° 0.7 mm 3 mps 761 mmHg 96%
    15:00 +18°C° 0.7 mm 3 mps 760 mmHg 95%
    16:00 +18°C° 0.7 mm 3 mps 759 mmHg 95%
    17:00 +17°C° 0.1 mm 3 mps 759 mmHg 95%
    18:00 +17°C° 0.1 mm 3 mps 758 mmHg 96%
    19:00 +16°C° 0.1 mm 3 mps 758 mmHg 97%
    20:00 +15°C° 0 mm 4 mps 758 mmHg 96%
    21:00 +15°C° 0 mm 5 mps 758 mmHg 96%
    22:00 +15°C° 0 mm 5 mps 758 mmHg 95%
    23:00 +15°C° 0 mm 5 mps 757 mmHg 95%

    Tomorrow, 11 April, Saturday

    Time Temperature Precipitation Wind Pressure Humidity
    00:00 +15°C° 0 mm 5 mps 757 mmHg 94%
    01:00 +15°C° 0 mm 5 mps 756 mmHg 93%
    02:00 +14°C° 0 mm 5 mps 756 mmHg 92%
    03:00 +14°C° 0 mm 5 mps 756 mmHg 91%
    04:00 +13°C° 0 mm 5 mps 755 mmHg 90%
    05:00 +14°C° 0 mm 6 mps 755 mmHg 89%
    06:00 +14°C° 0 mm 6 mps 755 mmHg 87%
    07:00 +14°C° 0 mm 6 mps 755 mmHg 86%
    08:00 +16°C° 0 mm 6 mps 755 mmHg 76%
    09:00 +19°C° 0 mm 6 mps 754 mmHg 66%
    10:00 +21°C° 0 mm 6 mps 754 mmHg 56%
    11:00 +23°C° 0 mm 7 mps 753 mmHg 51%
    12:00 +24°C° 0 mm 7 mps 752 mmHg 46%
    13:00 +26°C° 0 mm 8 mps 751 mmHg 41%
    14:00 +26°C° 0 mm 7 mps 751 mmHg 43%
    15:00 +24°C° 0 mm 7 mps 750 mmHg 44%
    16:00 +24°C° 0 mm 7 mps 750 mmHg 46%
    17:00 +22°C° 0 mm 7 mps 751 mmHg 49%
    18:00 +20°C° 0 mm 8 mps 752 mmHg 53%
    19:00 +17°C° 0 mm 8 mps 753 mmHg 56%
    20:00 +16°C° 0 mm 8 mps 754 mmHg 55%
    21:00 +15°C° 0 mm 8 mps 755 mmHg 53%
    22:00 +13°C° 0 mm 8 mps 756 mmHg 51%
    23:00 +12°C° 0 mm 8 mps 757 mmHg 52%

    Day after tomorrow, 12 April, Sunday

    Time Temperature Precipitation Wind Pressure Humidity
    00:00 +12°C° 0 mm 7 mps 757 mmHg 53%
    01:00 +11°C° 0 mm 7 mps 757 mmHg 54%
    02:00 +10°C° 0 mm 6 mps 758 mmHg 56%
    03:00 +9°C° 0 mm 6 mps 758 mmHg 59%
    04:00 +9°C° 0 mm 5 mps 758 mmHg 62%
    05:00 +9°C° 0 mm 5 mps 759 mmHg 64%
    06:00 +8°C° 0 mm 5 mps 759 mmHg 66%
    07:00 +8°C° 0 mm 5 mps 760 mmHg 68%
    08:00 +12°C° 0 mm 5 mps 760 mmHg 61%
    09:00 +14°C° 0 mm 5 mps 760 mmHg 54%
    10:00 +17°C° 0 mm 4 mps 761 mmHg 48%
    11:00 +19°C° 0 mm 4 mps 760 mmHg 46%
    12:00 +20°C° 0 mm 3 mps 760 mmHg 43%
    13:00 +21°C° 0 mm 3 mps 760 mmHg 41%
    14:00 +20°C° 0 mm 3 mps 760 mmHg 45%
    15:00 +20°C° 0 mm 3 mps 760 mmHg 49%
    16:00 +19°C° 0 mm 3 mps 760 mmHg 52%
    17:00 +17°C° 0 mm 2 mps 760 mmHg 59%
    18:00 +15°C° 0 mm 1 mps 761 mmHg 66%
    19:00 +14°C° 0 mm 1 mps 762 mmHg 73%
    20:00 +13°C° 0 mm 1 mps 762 mmHg 75%
    21:00 +13°C° 0 mm 1 mps 763 mmHg 76%
    22:00 +13°C° 0 mm 1 mps 764 mmHg 78%
    23:00 +12°C° 0 mm 1 mps 764 mmHg 80%

    13 April, Monday

    Time Temperature Precipitation Wind Pressure Humidity
    00:00 +12°C° 0 mm 1 mps 764 mmHg 83%
    01:00 +11°C° 0 mm 1 mps 763 mmHg 85%
    02:00 +11°C° 0 mm 1 mps 763 mmHg 85%
    03:00 +10°C° 0 mm 2 mps 763 mmHg 85%
    04:00 +10°C° 0 mm 2 mps 763 mmHg 86%
    05:00 +10°C° 0 mm 2 mps 764 mmHg 85%
    06:00 +12°C° 0 mm 2 mps 764 mmHg 84%
    07:00 +12°C° 0 mm 1 mps 765 mmHg 83%
    08:00 +15°C° 0 mm 1 mps 765 mmHg 74%
    09:00 +18°C° 0 mm 1 mps 765 mmHg 66%
    10:00 +21°C° 0 mm 1 mps 765 mmHg 57%
    11:00 +22°C° 0 mm 1 mps 764 mmHg 55%
    12:00 +22°C° 0 mm 1 mps 764 mmHg 54%
    13:00 +23°C° 0 mm 2 mps 764 mmHg 52%
    14:00 +21°C° 0 mm 2 mps 764 mmHg 56%
    15:00 +21°C° 0 mm 2 mps 763 mmHg 59%
    16:00 +20°C° 0 mm 2 mps 763 mmHg 62%
    17:00 +19°C° 0 mm 2 mps 764 mmHg 70%
    18:00 +17°C° 0 mm 2 mps 764 mmHg 78%
    19:00 +15°C° 0 mm 2 mps 765 mmHg 86%
    20:00 +15°C° 0 mm 2 mps 766 mmHg 88%
    21:00 +14°C° 0 mm 2 mps 766 mmHg 90%
    22:00 +14°C° 0 mm 2 mps 766 mmHg 91%
    23:00 +14°C° 0 mm 1 mps 766 mmHg 92%

    14 April, Tuesday

    Time Temperature Precipitation Wind Pressure Humidity
    00:00 +13°C° 0 mm 1 mps 766 mmHg 93%
    01:00 +13°C° 0 mm 1 mps 766 mmHg 94%
    02:00 +13°C° 0 mm 1 mps 766 mmHg 94%
    03:00 +13°C° 0 mm 1 mps 766 mmHg 95%
    04:00 +12°C° 0 mm 1 mps 766 mmHg 95%
    05:00 +12°C° 0 mm 1 mps 767 mmHg 95%
    06:00 +13°C° 0 mm 1 mps 767 mmHg 94%
    07:00 +13°C° 0 mm 2 mps 768 mmHg 93%
    08:00 +15°C° 0 mm 1 mps 768 mmHg 83%
    09:00 +19°C° 0 mm 1 mps 768 mmHg 73%
    10:00 +22°C° 0 mm 1 mps 768 mmHg 63%
    11:00 +23°C° 0 mm 1 mps 767 mmHg 59%
    12:00 +24°C° 0 mm 1 mps 767 mmHg 55%
    13:00 +26°C° 0 mm 1 mps 767 mmHg 50%
    14:00 +25°C° 0 mm 2 mps 766 mmHg 55%
    15:00 +24°C° 0 mm 2 mps 766 mmHg 59%
    16:00 +22°C° 0 mm 3 mps 766 mmHg 63%
    17:00 +20°C° 0 mm 3 mps 766 mmHg 73%
    18:00 +18°C° 0 mm 3 mps 767 mmHg 83%
    19:00 +16°C° 0 mm 2 mps 767 mmHg 92%
    20:00 +16°C° 0 mm 2 mps 768 mmHg 93%
    21:00 +16°C° 0 mm 2 mps 768 mmHg 94%
    22:00 +15°C° 0 mm 2 mps 768 mmHg 94%
    23:00 +15°C° 0 mm 2 mps 768 mmHg 94%

    15 April, Wednesday

    Time Temperature Precipitation Wind Pressure Humidity
    00:00 +15°C° 0 mm 1 mps 768 mmHg 95%
    01:00 +14°C° 0 mm 1 mps 768 mmHg 95%
    02:00 +14°C° 0 mm 1 mps 768 mmHg 95%
    03:00 +14°C° 0 mm 1 mps 768 mmHg 96%
    04:00 +14°C° 0 mm 1 mps 768 mmHg 96%
    05:00 +14°C° 0 mm 2 mps 768 mmHg 95%
    06:00 +14°C° 0 mm 2 mps 768 mmHg 94%
    07:00 +14°C° 0 mm 2 mps 768 mmHg 93%
    08:00 +17°C° 0 mm 2 mps 768 mmHg 82%
    09:00 +20°C° 0 mm 2 mps 768 mmHg 70%
    10:00 +23°C° 0 mm 1 mps 768 mmHg 59%
    11:00 +25°C° 0 mm 1 mps 767 mmHg 54%
    12:00 +26°C° 0 mm 1 mps 767 mmHg 49%
    13:00 +28°C° 0 mm 1 mps 766 mmHg 44%
    14:00 +27°C° 0 mm 2 mps 766 mmHg 48%
    15:00 +27°C° 0 mm 2 mps 766 mmHg 52%
    16:00 +26°C° 0 mm 3 mps 765 mmHg 55%
    17:00 +24°C° 0 mm 3 mps 765 mmHg 63%
    18:00 +21°C° 0 mm 3 mps 766 mmHg 71%
    19:00 +19°C° 0 mm 3 mps 766 mmHg 79%
    20:00 +18°C° 0 mm 3 mps 766 mmHg 80%
    21:00 +18°C° 0 mm 3 mps 766 mmHg 82%
    22:00 +17°C° 0 mm 3 mps 766 mmHg 83%
    23:00 +17°C° 0 mm 2 mps 766 mmHg 83%
    Show more